Location: Unspecified
(0.0000°N, 0.0000°E)
Time: 18:54:44
(UTC+01:00)

Milstar 3 - Visible Passes

Search period start: 31 October 2014 00:00
Search period end: 10 November 2014 00:00
Orbit: 1102 x 5144 km, 28.2° (Epoch: 29 October)

Date Brightness Start Highest point End Pass type
(mag) Time Alt. Az. Time Alt. Az. Time Alt. Az.
31 Oct 5.9 01:31:13 10° SW 02:09:46 66° ENE 02:31:06 10° ENE visible
31 Oct 5.7 04:43:26 35° W 04:58:21 53° NNW 05:18:17 10° NE visible
31 Oct 6.0 18:54:11 10° SW 19:02:05 20° S 19:14:05 10° SE visible
31 Oct 6.2 21:40:33 10° SW 21:57:18 33° SSE 22:07:05 28° SE visible
01 Nov 6.2 00:27:10 10° SW 01:12:43 37° E 01:26:03 10° ENE visible
01 Nov 5.7 03:46:23 61° WNW 03:52:03 66° NNW 04:15:51 10° NE visible
01 Nov 6.1 20:38:23 10° SW 20:51:07 26° SSE 21:08:27 13° ESE visible
01 Nov 6.0 23:23:58 10° SW 00:15:34 16° E 00:19:23 10° ENE visible
02 Nov 5.7 02:13:15 10° WSW 02:49:13 74° NNE 03:12:41 10° NE visible
02 Nov 5.9 05:22:53 22° WNW 05:41:16 39° NNW 05:58:46 10° NE visible
02 Nov 6.1 19:36:24 10° SW 19:45:41 21° SSE 19:59:58 10° SE visible
02 Nov 6.0 22:21:24 10° SW 22:41:03 43° SSE 22:43:22 43° SE visible
03 Nov 6.1 01:08:31 10° SW 01:51:58 50° ENE 02:08:32 10° ENE visible
03 Nov 5.8 04:25:37 43° WNW 04:34:59 50° NNW 04:56:33 10° NE visible
03 Nov 6.0 21:19:21 10° SW 21:34:54 34° SSE 21:44:50 27° ESE visible
04 Nov 6.0 00:04:52 10° SW 00:54:38 26° ENE 01:03:08 10° ENE visible
04 Nov 5.7 03:28:16 63° NNW 03:28:16 63° NNW 03:53:45 10° NE visible
04 Nov 6.0 06:01:54 11° WNW 06:24:51 30° NNW 06:39:31 10° NE visible
04 Nov 6.0 20:17:39 10° SSW 20:29:21 25° SSE 20:46:20 12° ESE visible
04 Nov 5.8 23:02:02 10° SW 23:19:50 55° S 23:19:50 55° S visible
05 Nov 5.9 01:50:28 10° WSW 02:30:50 58° NNE 02:50:12 10° NE visible
05 Nov 6.0 05:04:27 28° WNW 05:18:29 38° NNW 05:37:19 10° NE visible
05 Nov 6.0 19:16:09 10° SSW 19:24:24 19° SSE 19:36:38 10° SE visible
05 Nov 5.8 21:59:52 10° SW 22:18:02 45° SSE 22:21:23 44° SE visible
06 Nov 6.3 00:46:04 10° WSW 01:33:19 37° ENE 01:45:41 10° ENE visible
06 Nov 5.9 04:06:56 46° NW 04:11:33 48° NNW 04:34:41 10° NE visible
06 Nov 5.9 20:58:11 10° SW 21:12:34 34° SSE 21:22:58 26° ESE visible
06 Nov 5.8 23:42:45 10° SW 00:35:45 18° ENE 00:39:55 10° ENE visible
07 Nov 5.9 03:09:22 56° N 03:09:22 56° N 03:31:28 10° NE visible
07 Nov 6.1 05:42:59 15° WNW 06:02:41 30° NNW 06:18:30 10° NE visible
07 Nov 5.9 19:56:53 10° SSW 20:07:38 25° SSE 20:24:35 10° ESE visible
07 Nov 5.6 22:40:16 10° SW 22:58:06 59° SSE 22:58:06 59° SSE visible
08 Nov 6.2 01:27:57 10° WSW 02:11:43 45° NE 02:27:29 10° NE visible
08 Nov 6.1 04:45:20 32° NW 04:55:39 38° NNW 05:15:49 10° NE visible
08 Nov 5.9 18:55:53 10° SSW 19:03:09 18° SSE 19:13:32 10° SE visible
08 Nov 5.7 21:38:24 10° SW 21:55:07 47° SSE 21:59:45 44° SE visible
09 Nov 6.1 00:23:53 10° WSW 01:14:02 27° NE 01:22:32 10° ENE visible
09 Nov 6.0 03:47:38 46° NNW 03:48:05 46° NNW 04:12:41 10° NE visible
09 Nov 5.7 20:37:02 10° SSW 20:50:17 35° SSE 21:01:27 25° ESE visible
09 Nov 5.7 23:20:51 10° SW 23:34:59 58° SW 23:34:59 58° SW visible
